AFL393 UUDD-UWSG

Flight info

Callsign AFL393
Flight time N/A
Altitude 33000
Route TOGMO4N TOGMO M56 PISAR T385 SOKUR SOKUR1G
Aircraft B739/M-SDE2E3FGHIRWXY/LB1

Departure

Time N/A
Airport Domodedovo International Airport (UUDD)

Arrival

Time 2026-04-26 23:03
Airport Gagarin International Airport (UWSG)
Time Latitude Longitude Altitude Speed Heading
2026-04-26 22:58 51.79844 45.92286 5026 ft 195 kts 263°
2026-04-26 22:58 51.79356 45.90117 5091 ft 229 kts 239°
2026-04-26 22:58 51.78180 45.88163 4315 ft 251 kts 219°
2026-04-26 22:58 51.76677 45.86852 4061 ft 235 kts 204°
2026-04-26 22:59 51.75087 45.86845 4029 ft 223 kts 167°
2026-04-26 22:59 51.73730 45.88054 3631 ft 231 kts 143°
2026-04-26 22:59 51.72794 45.90168 3292 ft 233 kts 114°
2026-04-26 22:59 51.72539 45.92663 3161 ft 220 kts 85°
2026-04-26 23:00 51.72534 45.95029 3017 ft 206 kts 94°
2026-04-26 23:00 51.72423 45.97304 2623 ft 205 kts 98°
2026-04-26 23:00 51.72241 45.99659 1991 ft 213 kts 101°
2026-04-26 23:00 51.72041 46.01984 1561 ft 206 kts 103°
2026-04-26 23:01 51.71821 46.04133 1390 ft 186 kts 105°
2026-04-26 23:01 51.71661 46.06215 967 ft 185 kts 101°
2026-04-26 23:01 51.71471 46.08145 855 ft 164 kts 98°
2026-04-26 23:01 51.71422 46.09985 724 ft 161 kts 96°
2026-04-26 23:02 51.71417 46.11750 582 ft 154 kts 96°
2026-04-26 23:02 51.71365 46.13450 369 ft 149 kts 97°
2026-04-26 23:02 51.71313 46.15117 179 ft 153 kts 96°
2026-04-26 23:02 51.71272 46.16780 102 ft 139 kts 96°
2026-04-26 23:03 51.71226 46.18038 107 ft 86 kts 94°
2026-04-26 23:03 51.71209 46.18666 109 ft 10 kts 81°
2026-04-26 23:03 51.71254 46.18702 109 ft 2 kts 340°
2026-04-26 23:03 51.71266 46.18670 109 ft 5 kts 279°
2026-04-26 23:04 51.71247 46.18540 107 ft 20 kts 263°
2026-04-26 23:04 51.71250 46.18236 108 ft 24 kts 272°
2026-04-26 23:04 51.71255 46.18006 107 ft 28 kts 270°
2026-04-26 23:04 51.71247 46.17625 108 ft 31 kts 268°
2026-04-26 23:05 51.71355 46.17415 106 ft 35 kts 355°
2026-04-26 23:05 51.71591 46.17315 105 ft 20 kts 290°
2026-04-26 23:05 51.71579 46.17069 104 ft 23 kts 303°
2026-04-26 23:05 51.71615 46.17036 104 ft 0 kts 352°
2026-04-26 23:06 51.71617 46.17036 104 ft 0 kts 352°